Time,TemperatureF,DewpointF,PressureIn,WindDirection,WindDirectionDegrees,WindSpeedMPH,WindSpeedGustMPH,Humidity,HourlyPrecipIn,Conditions,Clouds,dailyrainin,SoftwareType,DateUTC
2013-05-04 00:01:00,46.1,38.3,29.78,ENE,65,0.0,0.0,74,0.00,,,0.00,Wunderground v.1.15,2013-05-04 04:01:00,
2013-05-04 00:02:00,46.1,38.6,29.78,ENE,65,0.0,0.0,75,0.00,,,0.00,Wunderground v.1.15,2013-05-04 04:02:00,
2013-05-04 00:03:00,46.1,38.6,29.78,ENE,66,0.0,0.0,75,0.00,,,0.00,Wunderground v.1.15,2013-05-04 04:03:00,
2013-05-04 00:04:00,46.0,38.5,29.78,ENE,65,0.0,0.0,75,0.00,,,0.00,Wunderground v.1.15,2013-05-04 04:04:00,
2013-05-04 00:05:00,45.9,38.4,29.78,ENE,66,0.0,0.0,75,0.00,,,0.00,Wunderground v.1.15,2013-05-04 04:05:00,
2013-05-04 00:10:00,45.7,38.2,29.78,ENE,66,0.0,0.0,75,0.00,,,0.00,Wunderground v.1.15,2013-05-04 04:10:00,
2013-05-04 00:16:00,45.8,38.7,29.77,ENE,64,0.0,0.0,76,0.00,,,0.00,Wunderground v.1.15,2013-05-04 04:16:00,
2013-05-04 00:22:00,45.4,38.3,29.77,NW,313,0.0,1.0,76,0.00,,,0.00,Wunderground v.1.15,2013-05-04 04:22:00,
2013-05-04 00:28:00,45.1,38.3,29.77,NW,319,0.0,1.0,77,0.00,,,0.00,Wunderground v.1.15,2013-05-04 04:28:00,
2013-05-04 00:33:00,44.9,38.1,29.77,WNW,290,0.0,1.0,77,0.00,,,0.00,Wunderground v.1.15,2013-05-04 04:33:00,
2013-05-04 00:39:00,44.7,38.3,29.77,NW,310,0.0,1.0,78,0.00,,,0.00,Wunderground v.1.15,2013-05-04 04:39:00,
2013-05-04 00:45:00,44.4,38.3,29.77,NW,310,0.0,0.0,79,0.00,,,0.00,Wunderground v.1.15,2013-05-04 04:45:00,
2013-05-04 00:51:00,44.3,38.2,29.76,NW,309,0.0,0.0,79,0.00,,,0.00,Wunderground v.1.15,2013-05-04 04:51:00,
2013-05-04 00:57:00,44.2,38.1,29.76,NW,311,0.0,1.0,79,0.00,,,0.00,Wunderground v.1.15,2013-05-04 04:57:00,
2013-05-04 01:02:00,43.9,38.1,29.76,WNW,302,2.0,2.0,80,0.00,,,0.00,Wunderground v.1.15,2013-05-04 05:02:00,
2013-05-04 01:08:00,43.6,37.8,29.76,NNW,328,1.0,2.0,80,0.00,,,0.00,Wunderground v.1.15,2013-05-04 05:08:00,
2013-05-04 01:14:00,43.5,37.7,29.75,NW,321,2.0,2.0,80,0.00,,,0.00,Wunderground v.1.15,2013-05-04 05:14:00,
2013-05-04 01:21:00,43.3,37.9,29.75,NW,318,3.0,3.0,81,0.00,,,0.00,Wunderground v.1.15,2013-05-04 05:21:00,
2013-05-04 01:26:00,43.2,38.1,29.75,NW,306,3.0,3.0,82,0.00,,,0.00,Wunderground v.1.15,2013-05-04 05:26:00,
2013-05-04 01:32:00,43.4,38.3,29.75,NW,315,2.0,3.0,82,0.00,,,0.00,Wunderground v.1.15,2013-05-04 05:32:00,
2013-05-04 01:38:00,43.6,38.8,29.75,WNW,292,3.0,3.0,83,0.00,,,0.00,Wunderground v.1.15,2013-05-04 05:38:00,
2013-05-04 01:44:00,44.0,38.9,29.75,NW,314,2.0,3.0,82,0.00,,,0.00,Wunderground v.1.15,2013-05-04 05:44:00,
2013-05-04 01:49:00,44.0,38.9,29.75,NW,311,2.0,3.0,82,0.00,,,0.00,Wunderground v.1.15,2013-05-04 05:49:00,
2013-05-04 01:55:00,43.9,38.8,29.75,NW,317,2.0,2.0,82,0.00,,,0.00,Wunderground v.1.15,2013-05-04 05:55:00,
2013-05-04 02:00:00,43.9,38.4,29.74,NW,315,2.0,2.0,81,0.00,,,0.00,Wunderground v.1.15,2013-05-04 06:00:00,
2013-05-04 02:05:00,43.7,38.6,29.74,NW,321,2.0,3.0,82,0.00,,,0.00,Wunderground v.1.15,2013-05-04 06:05:00,
2013-05-04 02:11:00,43.7,38.3,29.74,NW,323,2.0,2.0,81,0.00,,,0.00,Wunderground v.1.15,2013-05-04 06:11:00,
2013-05-04 02:16:00,43.9,38.1,29.73,NW,307,3.0,3.0,80,0.00,,,0.00,Wunderground v.1.15,2013-05-04 06:16:00,
2013-05-04 02:21:00,44.2,38.4,29.74,NW,321,2.0,2.0,80,0.00,,,0.00,Wunderground v.1.15,2013-05-04 06:21:00,
2013-05-04 02:26:00,44.1,38.3,29.74,NW,324,2.0,3.0,80,0.00,,,0.00,Wunderground v.1.15,2013-05-04 06:26:00,
2013-05-04 02:31:00,44.2,38.1,29.73,NNW,331,2.0,2.0,79,0.00,,,0.00,Wunderground v.1.15,2013-05-04 06:31:00,
2013-05-04 02:36:00,44.1,38.3,29.73,NNW,328,1.0,2.0,80,0.00,,,0.00,Wunderground v.1.15,2013-05-04 06:36:00,
2013-05-04 02:41:00,43.9,38.1,29.73,NW,319,1.0,2.0,80,0.00,,,0.00,Wunderground v.1.15,2013-05-04 06:41:00,
2013-05-04 02:46:00,43.8,38.0,29.73,NW,313,1.0,2.0,80,0.00,,,0.00,Wunderground v.1.15,2013-05-04 06:46:00,
2013-05-04 02:52:00,43.7,38.3,29.73,NNW,330,1.0,1.0,81,0.00,,,0.00,Wunderground v.1.15,2013-05-04 06:52:00,
2013-05-04 02:58:00,43.4,38.0,29.73,WNW,296,0.0,2.0,81,0.00,,,0.00,Wunderground v.1.15,2013-05-04 06:58:00,
2013-05-04 03:03:00,43.3,37.9,29.73,WNW,298,0.0,1.0,81,0.00,,,0.00,Wunderground v.1.15,2013-05-04 07:03:00,
2013-05-04 03:08:00,43.1,37.7,29.73,WNW,298,0.0,1.0,81,0.00,,,0.00,Wunderground v.1.15,2013-05-04 07:08:00,
2013-05-04 03:13:00,43.0,37.6,29.72,WNW,298,0.0,0.0,81,0.00,,,0.00,Wunderground v.1.15,2013-05-04 07:13:00,
2013-05-04 03:18:00,42.8,37.4,29.73,WNW,298,0.0,0.0,81,0.00,,,0.00,Wunderground v.1.15,2013-05-04 07:18:00,
2013-05-04 03:23:00,42.6,37.5,29.73,WNW,298,0.0,0.0,82,0.00,,,0.00,Wunderground v.1.15,2013-05-04 07:23:00,
2013-05-04 03:28:00,42.4,37.6,29.73,WNW,298,0.0,0.0,83,0.00,,,0.00,Wunderground v.1.15,2013-05-04 07:28:00,
2013-05-04 03:33:00,42.3,37.5,29.73,WNW,298,0.0,0.0,83,0.00,,,0.00,Wunderground v.1.15,2013-05-04 07:33:00,
2013-05-04 03:38:00,42.0,37.2,29.73,WNW,298,0.0,1.0,83,0.00,,,0.00,Wunderground v.1.15,2013-05-04 07:38:00,
2013-05-04 03:43:00,41.7,37.2,29.73,WNW,298,0.0,0.0,84,0.00,,,0.00,Wunderground v.1.15,2013-05-04 07:43:00,
2013-05-04 03:48:00,41.5,37.0,29.73,WNW,298,0.0,0.0,84,0.00,,,0.00,Wunderground v.1.15,2013-05-04 07:48:00,
2013-05-04 03:53:00,41.3,37.1,29.73,WNW,298,1.0,1.0,85,0.00,,,0.00,Wunderground v.1.15,2013-05-04 07:53:00,
2013-05-04 03:59:00,41.6,37.4,29.73,NW,326,0.0,2.0,85,0.00,,,0.00,Wunderground v.1.15,2013-05-04 07:59:00,
2013-05-04 04:04:00,41.3,36.8,29.73,NW,326,0.0,0.0,84,0.00,,,0.00,Wunderground v.1.15,2013-05-04 08:04:00,
2013-05-04 04:09:00,41.1,36.9,29.73,NW,326,0.0,0.0,85,0.00,,,0.00,Wunderground v.1.15,2013-05-04 08:09:00,
2013-05-04 04:14:00,41.0,37.1,29.73,NW,324,1.0,1.0,86,0.00,,,0.00,Wunderground v.1.15,2013-05-04 08:14:00,
2013-05-04 04:20:00,40.8,36.6,29.73,NW,324,0.0,0.0,85,0.00,,,0.00,Wunderground v.1.15,2013-05-04 08:20:00,
2013-05-04 04:26:00,40.5,36.3,29.73,NW,324,0.0,0.0,85,0.00,,,0.00,Wunderground v.1.15,2013-05-04 08:26:00,
2013-05-04 04:31:00,40.1,36.2,29.73,NW,324,0.0,0.0,86,0.00,,,0.00,Wunderground v.1.15,2013-05-04 08:31:00,
2013-05-04 04:36:00,40.2,36.6,29.73,NW,325,0.0,0.0,87,0.00,,,0.00,Wunderground v.1.15,2013-05-04 08:36:00,
2013-05-04 04:41:00,40.1,36.5,29.74,NW,325,0.0,0.0,87,0.00,,,0.00,Wunderground v.1.15,2013-05-04 08:41:00,
2013-05-04 04:46:00,39.9,36.6,29.74,NW,325,0.0,0.0,88,0.00,,,0.00,Wunderground v.1.15,2013-05-04 08:46:00,
2013-05-04 04:51:00,39.9,36.9,29.73,NW,325,0.0,0.0,89,0.00,,,0.00,Wunderground v.1.15,2013-05-04 08:51:00,
2013-05-04 04:56:00,40.1,36.8,29.74,NW,325,0.0,0.0,88,0.00,,,0.00,Wunderground v.1.15,2013-05-04 08:56:00,
2013-05-04 05:01:00,40.3,37.0,29.74,NW,325,1.0,1.0,88,0.00,,,0.00,Wunderground v.1.15,2013-05-04 09:01:00,
2013-05-04 05:06:00,40.6,37.3,29.73,NW,315,1.0,1.0,88,0.00,,,0.00,Wunderground v.1.15,2013-05-04 09:06:00,
2013-05-04 05:11:00,40.7,37.1,29.73,NW,315,0.0,0.0,87,0.00,,,0.00,Wunderground v.1.15,2013-05-04 09:11:00,
2013-05-04 05:16:00,40.9,37.3,29.73,NW,324,1.0,1.0,87,0.00,,,0.00,Wunderground v.1.15,2013-05-04 09:16:00,
2013-05-04 05:22:00,41.0,37.4,29.73,NW,324,0.0,1.0,87,0.00,,,0.00,Wunderground v.1.15,2013-05-04 09:22:00,
2013-05-04 05:27:00,40.9,37.3,29.73,NW,304,2.0,2.0,87,0.00,,,0.00,Wunderground v.1.15,2013-05-04 09:27:00,
2013-05-04 05:32:00,40.7,37.1,29.73,NW,323,0.0,1.0,87,0.00,,,0.00,Wunderground v.1.15,2013-05-04 09:32:00,
2013-05-04 05:37:00,40.7,37.4,29.73,NW,316,2.0,2.0,88,0.00,,,0.00,Wunderground v.1.15,2013-05-04 09:37:00,
2013-05-04 05:43:00,40.8,37.8,29.73,NW,319,1.0,2.0,89,0.00,,,0.00,Wunderground v.1.15,2013-05-04 09:43:00,
2013-05-04 05:48:00,40.8,37.8,29.74,NW,314,2.0,2.0,89,0.00,,,0.00,Wunderground v.1.15,2013-05-04 09:48:00,
2013-05-04 05:53:00,41.1,38.1,29.74,WNW,292,2.0,2.0,89,0.00,,,0.00,Wunderground v.1.15,2013-05-04 09:53:00,
2013-05-04 05:58:00,41.4,38.4,29.74,NNW,336,0.0,3.0,89,0.00,,,0.00,Wunderground v.1.15,2013-05-04 09:58:00,
2013-05-04 06:03:00,42.0,38.7,29.74,NNW,336,0.0,1.0,88,0.00,,,0.00,Wunderground v.1.15,2013-05-04 10:03:00,
2013-05-04 06:08:00,42.9,39.0,29.74,North,9,0.0,1.0,86,0.00,,,0.00,Wunderground v.1.15,2013-05-04 10:08:00,
2013-05-04 06:13:00,44.1,39.6,29.74,North,9,0.0,0.0,84,0.00,,,0.00,Wunderground v.1.15,2013-05-04 10:13:00,
2013-05-04 06:18:00,45.0,40.1,29.74,North,9,0.0,1.0,83,0.00,,,0.00,Wunderground v.1.15,2013-05-04 10:18:00,
2013-05-04 06:23:00,46.4,40.9,29.74,North,10,0.0,1.0,81,0.00,,,0.00,Wunderground v.1.15,2013-05-04 10:23:00,
2013-05-04 06:29:00,47.7,40.8,29.74,NNE,27,0.0,1.0,77,0.00,,,0.00,Wunderground v.1.15,2013-05-04 10:29:00,
2013-05-04 06:34:00,47.4,40.2,29.74,NE,34,2.0,2.0,76,0.00,,,0.00,Wunderground v.1.15,2013-05-04 10:34:00,
2013-05-04 06:40:00,47.1,40.3,29.74,NE,41,2.0,2.0,77,0.00,,,0.00,Wunderground v.1.15,2013-05-04 10:40:00,
2013-05-04 06:45:00,47.7,40.5,29.74,NNE,29,2.0,2.0,76,0.00,,,0.00,Wunderground v.1.15,2013-05-04 10:45:00,
2013-05-04 06:51:00,47.3,40.1,29.74,NE,55,2.0,3.0,76,0.00,,,0.00,Wunderground v.1.15,2013-05-04 10:51:00,
2013-05-04 06:56:00,47.4,40.2,29.74,NNE,22,3.0,4.0,76,0.00,,,0.00,Wunderground v.1.15,2013-05-04 10:56:00,
2013-05-04 07:01:00,47.5,40.0,29.74,ENE,60,1.0,3.0,75,0.00,,,0.00,Wunderground v.1.15,2013-05-04 11:01:00,
2013-05-04 07:06:00,48.1,40.2,29.74,NE,54,1.0,3.0,74,0.00,,,0.00,Wunderground v.1.15,2013-05-04 11:06:00,
2013-05-04 07:11:00,49.1,40.5,29.74,NNE,17,2.0,3.0,72,0.00,,,0.00,Wunderground v.1.15,2013-05-04 11:11:00,
2013-05-04 07:16:00,49.6,40.2,29.74,ENE,57,2.0,3.0,70,0.00,,,0.00,Wunderground v.1.15,2013-05-04 11:16:00,
2013-05-04 07:21:00,50.1,39.9,29.74,East,89,2.0,5.0,68,0.00,,,0.00,Wunderground v.1.15,2013-05-04 11:21:00,
2013-05-04 07:26:00,50.4,39.9,29.74,East,88,5.0,6.0,67,0.00,,,0.00,Wunderground v.1.15,2013-05-04 11:26:00,
2013-05-04 07:31:00,50.6,39.7,29.74,NE,48,1.0,5.0,66,0.00,,,0.00,Wunderground v.1.15,2013-05-04 11:31:00,
2013-05-04 07:36:00,50.6,39.7,29.74,ENE,70,7.0,8.0,66,0.00,,,0.00,Wunderground v.1.15,2013-05-04 11:36:00,
2013-05-04 07:41:00,50.5,39.6,29.74,NE,43,1.0,7.0,66,0.00,,,0.00,Wunderground v.1.15,2013-05-04 11:41:00,
2013-05-04 07:47:00,50.4,39.5,29.74,East,96,6.0,10.0,66,0.00,,,0.00,Wunderground v.1.15,2013-05-04 11:47:00,
2013-05-04 07:52:00,50.3,39.4,29.74,NE,51,4.0,8.0,66,0.00,,,0.00,Wunderground v.1.15,2013-05-04 11:52:00,
2013-05-04 07:57:00,50.4,39.5,29.74,East,80,3.0,8.0,66,0.00,,,0.00,Wunderground v.1.15,2013-05-04 11:57:00,
2013-05-04 08:02:00,50.5,39.2,29.74,ESE,110,2.0,7.0,65,0.00,,,0.00,Wunderground v.1.15,2013-05-04 12:02:00,
2013-05-04 08:07:00,50.4,39.5,29.74,East,91,7.0,9.0,66,0.00,,,0.00,Wunderground v.1.15,2013-05-04 12:07:00,
2013-05-04 08:13:00,50.9,39.9,29.74,NE,46,5.0,6.0,66,0.00,,,0.00,Wunderground v.1.15,2013-05-04 12:13:00,
2013-05-04 08:18:00,51.3,39.9,29.74,NE,49,4.0,8.0,65,0.00,,,0.00,Wunderground v.1.15,2013-05-04 12:18:00,
2013-05-04 08:24:00,51.7,40.3,29.74,NNW,338,3.0,8.0,65,0.00,,,0.00,Wunderground v.1.15,2013-05-04 12:24:00,
2013-05-04 08:29:00,52.6,40.8,29.74,NE,49,3.0,8.0,64,0.00,,,0.00,Wunderground v.1.15,2013-05-04 12:29:00,
2013-05-04 08:34:00,52.7,40.5,29.74,East,81,2.0,9.0,63,0.00,,,0.00,Wunderground v.1.15,2013-05-04 12:34:00,
2013-05-04 08:40:00,52.7,40.9,29.74,East,94,1.0,9.0,64,0.00,,,0.00,Wunderground v.1.15,2013-05-04 12:40:00,
2013-05-04 08:45:00,53.5,40.8,29.74,ENE,67,4.0,9.0,62,0.00,,,0.00,Wunderground v.1.15,2013-05-04 12:45:00,
2013-05-04 08:51:00,54.1,40.9,29.74,NW,315,2.0,5.0,61,0.00,,,0.00,Wunderground v.1.15,2013-05-04 12:51:00,
2013-05-04 08:57:00,54.6,40.6,29.74,ENE,72,8.0,9.0,59,0.00,,,0.00,Wunderground v.1.15,2013-05-04 12:57:00,
2013-05-04 09:03:00,54.5,40.5,29.74,East,86,7.0,7.0,59,0.00,,,0.00,Wunderground v.1.15,2013-05-04 13:03:00,
2013-05-04 09:08:00,54.6,40.6,29.74,NNW,348,10.0,11.0,59,0.00,,,0.00,Wunderground v.1.15,2013-05-04 13:08:00,
2013-05-04 09:13:00,53.9,40.3,29.74,North,9,5.0,11.0,60,0.00,,,0.00,Wunderground v.1.15,2013-05-04 13:13:00,
2013-05-04 09:18:00,53.9,40.3,29.74,NE,52,5.0,11.0,60,0.00,,,0.00,Wunderground v.1.15,2013-05-04 13:18:00,
2013-05-04 09:23:00,53.9,40.3,29.74,NE,48,4.0,9.0,60,0.00,,,0.00,Wunderground v.1.15,2013-05-04 13:23:00,
2013-05-04 09:28:00,54.7,40.6,29.74,East,86,5.0,12.0,59,0.00,,,0.00,Wunderground v.1.15,2013-05-04 13:28:00,
2013-05-04 09:33:00,55.7,40.7,29.74,NNW,346,3.0,9.0,57,0.00,,,0.00,Wunderground v.1.15,2013-05-04 13:33:00,
2013-05-04 09:38:00,55.6,40.6,29.74,NNE,15,10.0,10.0,57,0.00,,,0.00,Wunderground v.1.15,2013-05-04 13:38:00,
2013-05-04 09:43:00,54.9,40.8,29.74,NW,318,3.0,11.0,59,0.00,,,0.00,Wunderground v.1.15,2013-05-04 13:43:00,
2013-05-04 09:48:00,55.7,41.1,29.74,ESE,109,5.0,11.0,58,0.00,,,0.00,Wunderground v.1.15,2013-05-04 13:48:00,
2013-05-04 09:53:00,56.0,41.4,29.74,ENE,76,2.0,8.0,58,0.00,,,0.00,Wunderground v.1.15,2013-05-04 13:53:00,
2013-05-04 09:58:00,56.4,40.9,29.74,NE,56,5.0,13.0,56,0.00,,,0.00,Wunderground v.1.15,2013-05-04 13:58:00,
2013-05-04 10:03:00,55.8,41.2,29.74,ENE,61,4.0,10.0,58,0.00,,,0.00,Wunderground v.1.15,2013-05-04 14:03:00,
2013-05-04 10:08:00,56.3,41.3,29.74,East,86,10.0,11.0,57,0.00,,,0.00,Wunderground v.1.15,2013-05-04 14:08:00,
2013-05-04 10:13:00,57.3,42.2,29.74,NNE,27,6.0,10.0,57,0.00,,,0.00,Wunderground v.1.15,2013-05-04 14:13:00,
2013-05-04 10:18:00,57.5,41.4,29.74,NW,323,8.0,11.0,55,0.00,,,0.00,Wunderground v.1.15,2013-05-04 14:18:00,
2013-05-04 10:23:00,56.7,41.6,29.74,NE,39,1.0,11.0,57,0.00,,,0.00,Wunderground v.1.15,2013-05-04 14:23:00,
2013-05-04 10:28:00,57.3,41.7,29.74,NE,53,12.0,12.0,56,0.00,,,0.00,Wunderground v.1.15,2013-05-04 14:28:00,
2013-05-04 10:33:00,56.9,41.8,29.74,NE,40,4.0,10.0,57,0.00,,,0.00,Wunderground v.1.15,2013-05-04 14:33:00,
2013-05-04 10:39:00,57.0,41.9,29.74,East,87,3.0,14.0,57,0.00,,,0.00,Wunderground v.1.15,2013-05-04 14:39:00,
2013-05-04 10:44:00,57.6,42.0,29.74,ESE,107,11.0,12.0,56,0.00,,,0.00,Wunderground v.1.15,2013-05-04 14:44:00,
2013-05-04 10:49:00,58.3,42.2,29.74,ESE,116,8.0,14.0,55,0.00,,,0.00,Wunderground v.1.15,2013-05-04 14:49:00,
2013-05-04 10:55:00,57.8,42.2,29.74,NNW,340,9.0,13.0,56,0.00,,,0.00,Wunderground v.1.15,2013-05-04 14:55:00,
2013-05-04 11:00:00,58.2,42.1,29.73,ENE,63,3.0,3.0,55,0.00,,,0.00,Wunderground v.1.15,2013-05-04 15:00:00,
2013-05-04 11:06:00,58.3,42.2,29.73,NE,43,6.0,9.0,55,0.00,,,0.00,Wunderground v.1.15,2013-05-04 15:06:00,
2013-05-04 11:11:00,58.1,42.5,29.73,East,92,5.0,9.0,56,0.00,,,0.00,Wunderground v.1.15,2013-05-04 15:11:00,
2013-05-04 11:17:00,59.0,42.8,29.73,ENE,65,4.0,10.0,55,0.00,,,0.00,Wunderground v.1.15,2013-05-04 15:17:00,
2013-05-04 11:22:00,59.2,42.6,29.73,SSE,153,1.0,11.0,54,0.00,,,0.00,Wunderground v.1.15,2013-05-04 15:22:00,
2013-05-04 11:27:00,60.1,42.4,29.73,NNE,29,3.0,11.0,52,0.00,,,0.00,Wunderground v.1.15,2013-05-04 15:27:00,
2013-05-04 11:32:00,60.2,42.0,29.73,East,93,8.0,11.0,51,0.00,,,0.00,Wunderground v.1.15,2013-05-04 15:32:00,
2013-05-04 11:37:00,60.0,41.8,29.73,NNE,33,9.0,14.0,51,0.00,,,0.00,Wunderground v.1.15,2013-05-04 15:37:00,
2013-05-04 11:42:00,59.9,41.7,29.73,ESE,117,3.0,7.0,51,0.00,,,0.00,Wunderground v.1.15,2013-05-04 15:42:00,
2013-05-04 11:47:00,60.4,41.7,29.73,East,79,8.0,18.0,50,0.00,,,0.00,Wunderground v.1.15,2013-05-04 15:47:00,
2013-05-04 11:52:00,60.6,41.3,29.73,ESE,107,5.0,13.0,49,0.00,,,0.00,Wunderground v.1.15,2013-05-04 15:52:00,
2013-05-04 11:57:00,59.8,41.6,29.72,East,82,14.0,14.0,51,0.00,,,0.00,Wunderground v.1.15,2013-05-04 15:57:00,
2013-05-04 12:02:00,60.2,41.5,29.72,NE,53,4.0,11.0,50,0.00,,,0.00,Wunderground v.1.15,2013-05-04 16:02:00,
2013-05-04 12:07:00,61.4,41.0,29.73,ENE,66,13.0,17.0,47,0.00,,,0.00,Wunderground v.1.15,2013-05-04 16:07:00,
2013-05-04 12:12:00,60.8,39.9,29.72,ENE,61,4.0,14.0,46,0.00,,,0.00,Wunderground v.1.15,2013-05-04 16:12:00,
2013-05-04 12:17:00,61.1,40.1,29.72,ENE,64,13.0,14.0,46,0.00,,,0.00,Wunderground v.1.15,2013-05-04 16:17:00,
2013-05-04 12:23:00,60.5,40.7,29.72,ENE,68,11.0,11.0,48,0.00,,,0.00,Wunderground v.1.15,2013-05-04 16:23:00,
2013-05-04 12:28:00,61.3,39.2,29.72,ENE,69,5.0,11.0,44,0.00,,,0.00,Wunderground v.1.15,2013-05-04 16:28:00,
2013-05-04 12:33:00,61.4,39.3,29.72,ESE,108,7.0,13.0,44,0.00,,,0.00,Wunderground v.1.15,2013-05-04 16:33:00,
2013-05-04 12:38:00,62.1,38.7,29.72,NE,49,10.0,16.0,42,0.00,,,0.00,Wunderground v.1.15,2013-05-04 16:38:00,
2013-05-04 12:43:00,61.3,38.6,29.71,NW,322,8.0,14.0,43,0.00,,,0.00,Wunderground v.1.15,2013-05-04 16:43:00,
2013-05-04 12:48:00,61.7,37.7,29.72,East,99,5.0,19.0,41,0.00,,,0.00,Wunderground v.1.15,2013-05-04 16:48:00,
2013-05-04 12:53:00,61.8,36.6,29.72,ENE,65,8.0,16.0,39,0.00,,,0.00,Wunderground v.1.15,2013-05-04 16:53:00,
2013-05-04 12:58:00,61.9,36.7,29.72,ENE,62,15.0,18.0,39,0.00,,,0.00,Wunderground v.1.15,2013-05-04 16:58:00,
2013-05-04 13:03:00,61.0,37.1,29.71,NE,43,11.0,18.0,41,0.00,,,0.00,Wunderground v.1.15,2013-05-04 17:03:00,
2013-05-04 13:08:00,61.0,37.1,29.72,ENE,57,5.0,18.0,41,0.00,,,0.00,Wunderground v.1.15,2013-05-04 17:08:00,
2013-05-04 13:14:00,61.4,37.5,29.72,NE,53,6.0,17.0,41,0.00,,,0.00,Wunderground v.1.15,2013-05-04 17:14:00,
2013-05-04 13:20:00,61.3,36.8,29.71,ESE,106,2.0,2.0,40,0.00,,,0.00,Wunderground v.1.15,2013-05-04 17:20:00,
2013-05-04 13:26:00,63.0,35.6,29.71,NE,52,12.0,18.0,36,0.00,,,0.00,Wunderground v.1.15,2013-05-04 17:26:00,
2013-05-04 13:31:00,62.8,36.8,29.71,West,270,6.0,9.0,38,0.00,,,0.00,Wunderground v.1.15,2013-05-04 17:31:00,
2013-05-04 13:36:00,62.5,35.2,29.71,East,81,8.0,15.0,36,0.00,,,0.00,Wunderground v.1.15,2013-05-04 17:36:00,
2013-05-04 13:41:00,62.8,36.1,29.71,East,80,8.0,13.0,37,0.00,,,0.00,Wunderground v.1.15,2013-05-04 17:41:00,
2013-05-04 13:47:00,62.9,35.5,29.71,NE,46,9.0,13.0,36,0.00,,,0.00,Wunderground v.1.15,2013-05-04 17:47:00,
2013-05-04 13:52:00,61.7,35.8,29.71,East,93,2.0,11.0,38,0.00,,,0.00,Wunderground v.1.15,2013-05-04 17:52:00,
2013-05-04 13:57:00,63.0,36.3,29.71,ENE,75,4.0,11.0,37,0.00,,,0.00,Wunderground v.1.15,2013-05-04 17:57:00,
2013-05-04 14:03:00,62.3,35.7,29.71,NE,52,13.0,14.0,37,0.00,,,0.00,Wunderground v.1.15,2013-05-04 18:03:00,
2013-05-04 14:08:00,61.7,34.5,29.71,NNE,30,15.0,15.0,36,0.00,,,0.00,Wunderground v.1.15,2013-05-04 18:08:00,
2013-05-04 14:13:00,62.6,39.2,29.71,ESE,115,2.0,10.0,42,0.00,,,0.00,Wunderground v.1.15,2013-05-04 18:13:00,
2013-05-04 14:18:00,63.1,39.0,29.71,East,101,8.0,13.0,41,0.00,,,0.00,Wunderground v.1.15,2013-05-04 18:18:00,
2013-05-04 14:23:00,63.0,40.1,29.70,NNE,21,6.0,8.0,43,0.00,,,0.00,Wunderground v.1.15,2013-05-04 18:23:00,
2013-05-04 14:28:00,63.2,38.5,29.70,West,269,3.0,11.0,40,0.00,,,0.00,Wunderground v.1.15,2013-05-04 18:28:00,
2013-05-04 14:33:00,62.8,38.1,29.70,East,82,6.0,10.0,40,0.00,,,0.00,Wunderground v.1.15,2013-05-04 18:33:00,
2013-05-04 14:38:00,62.8,38.7,29.70,SE,126,6.0,15.0,41,0.00,,,0.00,Wunderground v.1.15,2013-05-04 18:38:00,
2013-05-04 14:43:00,62.7,39.9,29.70,East,82,9.0,11.0,43,0.00,,,0.00,Wunderground v.1.15,2013-05-04 18:43:00,
2013-05-04 14:48:00,62.1,38.7,29.70,NE,48,1.0,15.0,42,0.00,,,0.00,Wunderground v.1.15,2013-05-04 18:48:00,
2013-05-04 14:53:00,63.1,39.0,29.70,ESE,107,7.0,9.0,41,0.00,,,0.00,Wunderground v.1.15,2013-05-04 18:53:00,
2013-05-04 14:58:00,63.0,38.9,29.70,NW,313,5.0,14.0,41,0.00,,,0.00,Wunderground v.1.15,2013-05-04 18:58:00,
2013-05-04 15:03:00,61.8,37.8,29.70,ENE,74,8.0,15.0,41,0.00,,,0.00,Wunderground v.1.15,2013-05-04 19:03:00,
2013-05-04 15:08:00,62.1,38.7,29.69,ENE,61,8.0,15.0,42,0.00,,,0.00,Wunderground v.1.15,2013-05-04 19:08:00,
2013-05-04 15:13:00,61.4,38.1,29.69,NE,53,8.0,19.0,42,0.00,,,0.00,Wunderground v.1.15,2013-05-04 19:13:00,
2013-05-04 15:18:00,61.5,39.4,29.69,ESE,106,13.0,19.0,44,0.00,,,0.00,Wunderground v.1.15,2013-05-04 19:18:00,
2013-05-04 15:23:00,61.9,39.1,29.69,ESE,120,2.0,9.0,43,0.00,,,0.00,Wunderground v.1.15,2013-05-04 19:23:00,
2013-05-04 15:29:00,62.7,38.6,29.69,East,90,15.0,16.0,41,0.00,,,0.00,Wunderground v.1.15,2013-05-04 19:29:00,
2013-05-04 15:34:00,62.1,38.1,29.69,East,88,7.0,11.0,41,0.00,,,0.00,Wunderground v.1.15,2013-05-04 19:34:00,
2013-05-04 15:39:00,61.9,37.9,29.69,NNE,18,7.0,15.0,41,0.00,,,0.00,Wunderground v.1.15,2013-05-04 19:39:00,
2013-05-04 15:44:00,62.6,37.3,29.69,East,80,11.0,13.0,39,0.00,,,0.00,Wunderground v.1.15,2013-05-04 19:44:00,
2013-05-04 15:49:00,61.7,37.7,29.69,East,90,8.0,13.0,41,0.00,,,0.00,Wunderground v.1.15,2013-05-04 19:49:00,
2013-05-04 15:55:00,61.5,36.9,29.69,ESE,102,5.0,16.0,40,0.00,,,0.00,Wunderground v.1.15,2013-05-04 19:55:00,
2013-05-04 16:01:00,62.0,36.7,29.69,East,99,8.0,9.0,39,0.00,,,0.00,Wunderground v.1.15,2013-05-04 20:01:00,
2013-05-04 16:06:00,61.9,36.0,29.69,ENE,71,5.0,9.0,38,0.00,,,0.00,Wunderground v.1.15,2013-05-04 20:06:00,
2013-05-04 16:12:00,61.5,35.6,29.69,East,85,8.0,8.0,38,0.00,,,0.00,Wunderground v.1.15,2013-05-04 20:12:00,
2013-05-04 16:17:00,61.3,35.5,29.69,NNE,15,4.0,10.0,38,0.00,,,0.00,Wunderground v.1.15,2013-05-04 20:17:00,
2013-05-04 16:22:00,61.2,35.4,29.69,East,80,6.0,9.0,38,0.00,,,0.00,Wunderground v.1.15,2013-05-04 20:22:00,
2013-05-04 16:27:00,60.9,34.4,29.69,East,94,8.0,11.0,37,0.00,,,0.00,Wunderground v.1.15,2013-05-04 20:27:00,
2013-05-04 16:32:00,60.6,34.2,29.69,ENE,63,9.0,14.0,37,0.00,,,0.00,Wunderground v.1.15,2013-05-04 20:32:00,
2013-05-04 16:37:00,60.4,34.0,29.69,East,100,3.0,14.0,37,0.00,,,0.00,Wunderground v.1.15,2013-05-04 20:37:00,
2013-05-04 16:42:00,60.9,33.7,29.68,ENE,68,4.0,9.0,36,0.00,,,0.00,Wunderground v.1.15,2013-05-04 20:42:00,
2013-05-04 16:48:00,61.1,33.9,29.69,ENE,76,9.0,9.0,36,0.00,,,0.00,Wunderground v.1.15,2013-05-04 20:48:00,
2013-05-04 16:54:00,61.0,32.4,29.69,NNW,336,10.0,10.0,34,0.00,,,0.00,Wunderground v.1.15,2013-05-04 20:54:00,
2013-05-04 16:59:00,60.5,32.7,29.69,East,97,7.0,12.0,35,0.00,,,0.00,Wunderground v.1.15,2013-05-04 20:59:00,
2013-05-04 17:04:00,60.2,33.1,29.69,ESE,119,8.0,10.0,36,0.00,,,0.00,Wunderground v.1.15,2013-05-04 21:04:00,
2013-05-04 17:09:00,60.4,32.6,29.69,NNE,32,4.0,12.0,35,0.00,,,0.00,Wunderground v.1.15,2013-05-04 21:09:00,
2013-05-04 17:14:00,60.0,32.2,29.69,ENE,75,5.0,12.0,35,0.00,,,0.00,Wunderground v.1.15,2013-05-04 21:14:00,
2013-05-04 17:19:00,60.1,32.3,29.69,East,98,8.0,13.0,35,0.00,,,0.00,Wunderground v.1.15,2013-05-04 21:19:00,
2013-05-04 17:24:00,59.9,31.4,29.69,NE,51,10.0,13.0,34,0.00,,,0.00,Wunderground v.1.15,2013-05-04 21:24:00,
2013-05-04 17:29:00,60.0,30.8,29.69,ENE,78,5.0,14.0,33,0.00,,,0.00,Wunderground v.1.15,2013-05-04 21:29:00,
2013-05-04 17:34:00,60.2,31.7,29.69,ESE,113,3.0,9.0,34,0.00,,,0.00,Wunderground v.1.15,2013-05-04 21:34:00,
2013-05-04 17:39:00,60.1,30.9,29.69,ESE,113,5.0,10.0,33,0.00,,,0.00,Wunderground v.1.15,2013-05-04 21:39:00,
2013-05-04 17:44:00,60.0,30.8,29.69,NNE,18,5.0,11.0,33,0.00,,,0.00,Wunderground v.1.15,2013-05-04 21:44:00,
2013-05-04 17:49:00,60.1,30.1,29.69,WNW,300,2.0,11.0,32,0.00,,,0.00,Wunderground v.1.15,2013-05-04 21:49:00,
2013-05-04 17:54:00,59.3,30.9,29.69,ESE,107,9.0,11.0,34,0.00,,,0.00,Wunderground v.1.15,2013-05-04 21:54:00,
2013-05-04 17:59:00,59.2,30.1,29.69,SE,128,7.0,11.0,33,0.00,,,0.00,Wunderground v.1.15,2013-05-04 21:59:00,
2013-05-04 18:04:00,59.2,30.8,29.69,ENE,71,2.0,7.0,34,0.00,,,0.00,Wunderground v.1.15,2013-05-04 22:04:00,
2013-05-04 18:09:00,59.0,30.6,29.69,ENE,78,3.0,11.0,34,0.00,,,0.00,Wunderground v.1.15,2013-05-04 22:09:00,
2013-05-04 18:14:00,59.0,29.9,29.69,NNE,28,8.0,10.0,33,0.00,,,0.00,Wunderground v.1.15,2013-05-04 22:14:00,
2013-05-04 18:19:00,58.4,27.9,29.69,East,87,5.0,12.0,31,0.00,,,0.00,Wunderground v.1.15,2013-05-04 22:19:00,
2013-05-04 18:25:00,57.7,28.0,29.69,ENE,77,5.0,11.0,32,0.00,,,0.00,Wunderground v.1.15,2013-05-04 22:25:00,
2013-05-04 18:31:00,58.0,26.7,29.69,ENE,71,9.0,9.0,30,0.00,,,0.00,Wunderground v.1.15,2013-05-04 22:31:00,
2013-05-04 18:36:00,57.2,26.8,29.69,ENE,72,5.0,9.0,31,0.00,,,0.00,Wunderground v.1.15,2013-05-04 22:36:00,
2013-05-04 18:42:00,56.8,26.5,29.69,ESE,111,2.0,8.0,31,0.00,,,0.00,Wunderground v.1.15,2013-05-04 22:42:00,
2013-05-04 18:48:00,56.2,25.9,29.69,ESE,105,5.0,8.0,31,0.00,,,0.00,Wunderground v.1.15,2013-05-04 22:48:00,
2013-05-04 18:53:00,55.4,26.0,29.69,SE,145,1.0,5.0,32,0.00,,,0.00,Wunderground v.1.15,2013-05-04 22:53:00,
2013-05-04 18:59:00,54.8,26.2,29.69,East,79,2.0,7.0,33,0.00,,,0.00,Wunderground v.1.15,2013-05-04 22:59:00,
2013-05-04 19:05:00,54.4,25.9,29.69,East,82,7.0,10.0,33,0.00,,,0.00,Wunderground v.1.15,2013-05-04 23:05:00,
2013-05-04 19:11:00,54.1,27.0,29.69,East,99,5.0,5.0,35,0.00,,,0.00,Wunderground v.1.15,2013-05-04 23:11:00,
2013-05-04 19:16:00,53.7,28.0,29.69,ESE,109,1.0,8.0,37,0.00,,,0.00,Wunderground v.1.15,2013-05-04 23:16:00,
2013-05-04 19:21:00,52.9,28.6,29.69,East,100,5.0,5.0,39,0.00,,,0.00,Wunderground v.1.15,2013-05-04 23:21:00,
2013-05-04 19:26:00,52.2,28.6,29.69,ESE,102,2.0,8.0,40,0.00,,,0.00,Wunderground v.1.15,2013-05-04 23:26:00,
2013-05-04 19:31:00,51.8,28.8,29.70,SE,126,2.0,5.0,41,0.00,,,0.00,Wunderground v.1.15,2013-05-04 23:31:00,
2013-05-04 19:36:00,51.5,29.7,29.70,ENE,76,3.0,8.0,43,0.00,,,0.00,Wunderground v.1.15,2013-05-04 23:36:00,
2013-05-04 19:41:00,51.1,30.5,29.70,NE,46,3.0,10.0,45,0.00,,,0.00,Wunderground v.1.15,2013-05-04 23:41:00,
2013-05-04 19:46:00,50.8,30.2,29.70,East,100,3.0,10.0,45,0.00,,,0.00,Wunderground v.1.15,2013-05-04 23:46:00,
2013-05-04 19:52:00,50.5,30.5,29.70,WNW,298,1.0,6.0,46,0.00,,,0.00,Wunderground v.1.15,2013-05-04 23:52:00,
2013-05-04 19:57:00,50.3,30.3,29.70,ESE,113,2.0,8.0,46,0.00,,,0.00,Wunderground v.1.15,2013-05-04 23:57:00,
2013-05-04 20:02:00,49.9,31.0,29.70,ENE,65,0.0,4.0,48,0.00,,,0.00,Wunderground v.1.15,2013-05-05 00:02:00,
2013-05-04 20:07:00,49.5,30.6,29.70,East,86,2.0,4.0,48,0.00,,,0.00,Wunderground v.1.15,2013-05-05 00:07:00,
2013-05-04 20:12:00,49.2,29.8,29.71,East,81,1.0,9.0,47,0.00,,,0.00,Wunderground v.1.15,2013-05-05 00:12:00,
2013-05-04 20:17:00,48.9,29.0,29.71,East,81,5.0,9.0,46,0.00,,,0.00,Wunderground v.1.15,2013-05-05 00:17:00,
2013-05-04 20:23:00,48.6,28.7,29.71,ENE,76,4.0,6.0,46,0.00,,,0.00,Wunderground v.1.15,2013-05-05 00:23:00,
2013-05-04 20:28:00,48.4,28.5,29.71,ENE,78,2.0,6.0,46,0.00,,,0.00,Wunderground v.1.15,2013-05-05 00:28:00,
2013-05-04 20:34:00,48.0,29.2,29.71,ENE,74,2.0,3.0,48,0.00,,,0.00,Wunderground v.1.15,2013-05-05 00:34:00,
2013-05-04 20:39:00,47.7,29.5,29.71,ENE,61,3.0,4.0,49,0.00,,,0.00,Wunderground v.1.15,2013-05-05 00:39:00,
2013-05-04 20:44:00,47.4,29.7,29.71,East,90,5.0,7.0,50,0.00,,,0.00,Wunderground v.1.15,2013-05-05 00:44:00,
2013-05-04 20:50:00,47.0,29.8,29.72,East,84,1.0,1.0,51,0.00,,,0.00,Wunderground v.1.15,2013-05-05 00:50:00,
2013-05-04 20:55:00,46.7,30.5,29.72,East,94,6.0,6.0,53,0.00,,,0.00,Wunderground v.1.15,2013-05-05 00:55:00,
2013-05-04 21:01:00,46.4,31.1,29.72,East,86,0.0,5.0,55,0.00,,,0.00,Wunderground v.1.15,2013-05-05 01:01:00,
2013-05-04 21:06:00,46.0,31.2,29.72,NE,49,4.0,5.0,56,0.00,,,0.00,Wunderground v.1.15,2013-05-05 01:06:00,
2013-05-04 21:11:00,45.7,31.8,29.72,East,83,3.0,3.0,58,0.00,,,0.00,Wunderground v.1.15,2013-05-05 01:11:00,
2013-05-04 21:16:00,45.5,32.0,29.72,ENE,61,4.0,5.0,59,0.00,,,0.00,Wunderground v.1.15,2013-05-05 01:16:00,
2013-05-04 21:21:00,45.2,32.1,29.72,ENE,64,4.0,4.0,60,0.00,,,0.00,Wunderground v.1.15,2013-05-05 01:21:00,
2013-05-04 21:26:00,45.0,32.3,29.72,East,84,2.0,4.0,61,0.00,,,0.00,Wunderground v.1.15,2013-05-05 01:26:00,
2013-05-04 21:31:00,44.7,32.9,29.72,NE,43,2.0,5.0,63,0.00,,,0.00,Wunderground v.1.15,2013-05-05 01:31:00,
2013-05-04 21:36:00,44.5,33.1,29.72,ENE,62,1.0,5.0,64,0.00,,,0.00,Wunderground v.1.15,2013-05-05 01:36:00,
2013-05-04 21:41:00,44.2,33.2,29.73,ENE,64,2.0,4.0,65,0.00,,,0.00,Wunderground v.1.15,2013-05-05 01:41:00,
2013-05-04 21:46:00,43.9,33.3,29.73,ENE,66,1.0,4.0,66,0.00,,,0.00,Wunderground v.1.15,2013-05-05 01:46:00,
2013-05-04 21:52:00,43.6,34.1,29.73,ENE,68,2.0,3.0,69,0.00,,,0.00,Wunderground v.1.15,2013-05-05 01:52:00,
2013-05-04 21:57:00,43.3,34.2,29.73,ENE,62,0.0,4.0,70,0.00,,,0.00,Wunderground v.1.15,2013-05-05 01:57:00,
2013-05-04 22:02:00,43.2,34.4,29.72,ENE,61,2.0,2.0,71,0.00,,,0.00,Wunderground v.1.15,2013-05-05 02:02:00,
2013-05-04 22:07:00,43.0,34.6,29.73,ENE,61,3.0,5.0,72,0.00,,,0.00,Wunderground v.1.15,2013-05-05 02:07:00,
2013-05-04 22:13:00,42.7,34.6,29.73,East,86,1.0,3.0,73,0.00,,,0.00,Wunderground v.1.15,2013-05-05 02:13:00,
2013-05-04 22:19:00,42.5,34.8,29.73,ENE,59,1.0,3.0,74,0.00,,,0.00,Wunderground v.1.15,2013-05-05 02:19:00,
2013-05-04 22:24:00,42.3,34.9,29.73,NE,38,1.0,2.0,75,0.00,,,0.00,Wunderground v.1.15,2013-05-05 02:24:00,
2013-05-04 22:29:00,42.2,34.8,29.73,ENE,59,1.0,2.0,75,0.00,,,0.00,Wunderground v.1.15,2013-05-05 02:29:00,
2013-05-04 22:34:00,41.9,34.9,29.73,East,80,0.0,3.0,76,0.00,,,0.00,Wunderground v.1.15,2013-05-05 02:34:00,
2013-05-04 22:39:00,41.8,35.1,29.73,NE,42,1.0,3.0,77,0.00,,,0.00,Wunderground v.1.15,2013-05-05 02:39:00,
2013-05-04 22:44:00,41.6,35.2,29.73,NE,51,1.0,1.0,78,0.00,,,0.00,Wunderground v.1.15,2013-05-05 02:44:00,
2013-05-04 22:49:00,41.4,35.4,29.73,NE,51,1.0,2.0,79,0.00,,,0.00,Wunderground v.1.15,2013-05-05 02:49:00,
2013-05-04 22:54:00,41.2,35.5,29.73,ENE,71,0.0,3.0,80,0.00,,,0.00,Wunderground v.1.15,2013-05-05 02:54:00,
2013-05-04 22:59:00,41.0,35.3,29.72,NNW,348,1.0,3.0,80,0.00,,,0.00,Wunderground v.1.15,2013-05-05 02:59:00,
2013-05-04 23:04:00,40.9,35.5,29.72,NE,51,0.0,1.0,81,0.00,,,0.00,Wunderground v.1.15,2013-05-05 03:04:00,
2013-05-04 23:10:00,40.7,35.6,29.72,NE,49,2.0,2.0,82,0.00,,,0.00,Wunderground v.1.15,2013-05-05 03:10:00,
2013-05-04 23:16:00,40.6,35.8,29.72,ENE,62,2.0,2.0,83,0.00,,,0.00,Wunderground v.1.15,2013-05-05 03:16:00,
2013-05-04 23:21:00,40.6,35.8,29.72,ENE,73,1.0,2.0,83,0.00,,,0.00,Wunderground v.1.15,2013-05-05 03:21:00,
2013-05-04 23:26:00,40.4,35.6,29.72,ENE,69,1.0,2.0,83,0.00,,,0.00,Wunderground v.1.15,2013-05-05 03:26:00,
2013-05-04 23:31:00,40.3,35.8,29.72,NE,55,0.0,1.0,84,0.00,,,0.00,Wunderground v.1.15,2013-05-05 03:31:00,
2013-05-04 23:36:00,40.3,35.8,29.72,NNE,28,0.0,2.0,84,0.00,,,0.00,Wunderground v.1.15,2013-05-05 03:36:00,
2013-05-04 23:41:00,40.3,35.8,29.72,NNE,25,1.0,1.0,84,0.00,,,0.00,Wunderground v.1.15,2013-05-05 03:41:00,
2013-05-04 23:46:00,40.3,36.1,29.72,NNE,29,2.0,3.0,85,0.00,,,0.00,Wunderground v.1.15,2013-05-05 03:46:00,
2013-05-04 23:52:00,40.3,35.8,29.72,NE,38,0.0,1.0,84,0.00,,,0.00,Wunderground v.1.15,2013-05-05 03:52:00,
2013-05-04 23:57:00,40.2,36.1,29.72,NE,38,1.0,1.0,85,0.00,,,0.00,Wunderground v.1.15,2013-05-05 03:57:00,